Jonesville, VA

5:37 PM EST on December 08, 2016 (GMT -0500)
Jonesville

Weather History for K0VG - December, 2013

Change the Weather History Date:

Friday, December 20, 2013

  Actual Average (KLNP) Record (KLNP)
Temperature  
Mean Temperature 38 °F -  
Max Temperature 50 °F 39 °F 57 °F (2006)
Min Temperature 26 °F 23 °F -4 °F (2004)
Degree Days  
Heating Degree Days 27    
Moisture  
Dew Point 33 °F    
Average Humidity 80    
Maximum Humidity 100    
Minimum Humidity 54    
Precipitation  
Precipitation 0.00 in - - ()
Sea Level Pressure  
Sea Level Pressure 30.15 in    
Wind  
Wind Speed 0 mph (WSW)    
Max Wind Speed 4 mph    
Max Gust Speed -    
Visibility 10 miles    
Events Rain    
Averages and records for this station are not official NWS values.
T = Trace of Precipitation, MM = Missing Value Source: NWS Daily Summary

Daily Weather History Graph

Daily Weather History Graph

Search for Another Location

Airport or City:

Trip Planner

Search our weather history database for the weather conditions in past years. The results will help you decide how hot, cold, wet, or windy it might be!

Date:

Astronomy

Dec. 20, 2013 Rise Set
Actual Time 7:41 AM EST 5:20 PM EST
Civil Twilight 7:12 AM EST 5:49 PM EST
Nautical Twilight 6:39 AM EST 6:21 PM EST
Astronomical Twilight 6:08 AM EST 6:53 PM EST
Moon 8:35 PM EST (12/20) 9:38 AM EST (12/20)
Length of Visible Light 10h 37m
Length of Day
9h 39m
Waning Gibbous, 90% of the Moon is Illuminated
Dec 20
Waning Gibbous
Dec 25
Last Quarter
Jan 1
New
Jan 7
First Quarter
Jan 15
Full

Hourly Weather History & Observations

Time (EST) Temp. Windchill Dew Point Humidity Pressure Visibility Wind Dir Wind Speed Gust Speed Precip Events Conditions
12:15 AM 30.2 °F - 28.4 °F 93% 30.17 in 10.0 mi Calm Calm - N/A   Unknown
12:35 AM 30.2 °F - 28.4 °F 93% 30.17 in 10.0 mi Calm Calm - N/A   Unknown
12:55 AM 28.4 °F - 26.6 °F 93% 30.17 in 10.0 mi Calm Calm - N/A   Unknown
1:15 AM 28.4 °F - 26.6 °F 93% 30.17 in 10.0 mi Calm Calm - N/A   Unknown
1:35 AM 28.4 °F - 26.6 °F 93% 30.17 in 10.0 mi Calm Calm - N/A   Unknown
1:55 AM 28.4 °F - 26.6 °F 93% 30.17 in 10.0 mi Calm Calm - N/A   Unknown
2:15 AM 28.4 °F - 28.4 °F 100% 30.17 in 10.0 mi Calm Calm - N/A   Unknown
2:35 AM 28.4 °F - 26.6 °F 93% 30.18 in 10.0 mi Calm Calm - N/A   Unknown
2:55 AM 26.6 °F - 26.6 °F 100% 30.19 in 10.0 mi Calm Calm - N/A   Unknown
3:15 AM 28.4 °F - 26.6 °F 93% 30.19 in 10.0 mi Calm Calm - N/A   Unknown
3:35 AM 28.4 °F - 26.6 °F 93% 30.20 in 10.0 mi Calm Calm - N/A   Unknown
3:55 AM 28.4 °F - 26.6 °F 93% 30.20 in 10.0 mi Calm Calm - N/A   Unknown
4:15 AM 26.6 °F - 26.6 °F 100% 30.19 in 10.0 mi Calm Calm - N/A   Unknown
4:35 AM 28.4 °F - 26.6 °F 93% 30.19 in 10.0 mi Calm Calm - N/A   Unknown
4:55 AM 28.4 °F - 26.6 °F 93% 30.19 in 10.0 mi Calm Calm - N/A   Unknown
5:15 AM 28.4 °F - 26.6 °F 93% 30.19 in 10.0 mi Calm Calm - N/A   Unknown
5:35 AM 28.4 °F - 26.6 °F 93% 30.19 in 10.0 mi Calm Calm - N/A   Unknown
5:55 AM 26.6 °F - 26.6 °F 100% 30.19 in 10.0 mi Calm Calm - N/A   Unknown
6:15 AM 28.4 °F - 26.6 °F 93% 30.18 in 10.0 mi Calm Calm - N/A   Unknown
6:35 AM 28.4 °F - 26.6 °F 93% 30.18 in 10.0 mi Calm Calm - N/A   Unknown
6:55 AM 28.4 °F - 26.6 °F 93% 30.19 in 10.0 mi Calm Calm - N/A   Unknown
7:15 AM 28.4 °F - 26.6 °F 93% 30.19 in 10.0 mi Calm Calm - N/A   Unknown
7:35 AM 28.4 °F - 26.6 °F 93% 30.19 in 10.0 mi Calm Calm - N/A   Unknown
7:55 AM 30.2 °F - 28.4 °F 93% 30.19 in 10.0 mi Calm Calm - N/A   Unknown
8:15 AM 30.2 °F - 28.4 °F 93% 30.19 in 10.0 mi Calm Calm - N/A   Overcast
8:35 AM 32.0 °F - 28.4 °F 87% 30.19 in 10.0 mi Calm Calm - N/A   Overcast
8:55 AM 32.0 °F - 28.4 °F 87% 30.18 in 10.0 mi Calm Calm - N/A   Overcast
9:15 AM 33.8 °F - 28.4 °F 81% 30.19 in 10.0 mi Calm Calm - N/A   Overcast
9:55 AM 35.6 °F - 30.2 °F 81% 30.20 in 10.0 mi Calm Calm - N/A   Overcast
10:15 AM 35.6 °F - 30.2 °F 81% 30.19 in 10.0 mi Calm Calm - N/A   Overcast
10:35 AM 37.4 °F - 32.0 °F 81% 30.19 in 10.0 mi Calm Calm - N/A   Overcast
10:55 AM 41.0 °F - 32.0 °F 70% 30.19 in 10.0 mi Calm Calm - N/A   Overcast
11:15 AM 42.8 °F - 32.0 °F 66% 30.18 in - Calm Calm - N/A   Unknown
11:35 AM 44.6 °F - 32.0 °F 61% 30.17 in 10.0 mi Calm Calm - N/A   Overcast
11:55 AM 46.4 °F - 32.0 °F 57% 30.16 in 10.0 mi Calm Calm - N/A   Overcast
12:15 PM 46.4 °F 45.2 °F 32.0 °F 57% 30.16 in 10.0 mi WSW 3.5 mph - N/A   Overcast
12:35 PM 46.4 °F - 32.0 °F 57% 30.15 in 10.0 mi Calm Calm - N/A   Overcast
12:55 PM 46.4 °F - 32.0 °F 57% 30.14 in 10.0 mi Calm Calm - N/A   Overcast
1:15 PM 48.2 °F - 32.0 °F 54% 30.14 in 10.0 mi Calm Calm - N/A   Overcast
1:35 PM 48.2 °F - 33.8 °F 58% 30.12 in 10.0 mi Calm Calm - N/A   Overcast
1:55 PM 48.2 °F - 33.8 °F 58% 30.12 in 10.0 mi Calm Calm - N/A   Overcast
2:15 PM 48.2 °F - 33.8 °F 58% 30.12 in 10.0 mi Calm Calm - N/A   Overcast
2:35 PM 48.2 °F - 33.8 °F 58% 30.12 in 10.0 mi Calm Calm - N/A   Overcast
2:55 PM 50.0 °F - 33.8 °F 54% 30.11 in 10.0 mi Calm Calm - N/A   Overcast
3:15 PM 50.0 °F - 35.6 °F 58% 30.11 in 10.0 mi Calm Calm - N/A   Overcast
3:35 PM 50.0 °F - 35.6 °F 58% 30.11 in 10.0 mi Calm Calm - N/A   Overcast
3:55 PM 50.0 °F - 35.6 °F 58% 30.12 in 10.0 mi Calm Calm - N/A   Overcast
4:15 PM 50.0 °F - 35.6 °F 58% 30.12 in 10.0 mi Calm Calm - N/A   Overcast
4:35 PM 50.0 °F - 37.4 °F 62% 30.11 in 10.0 mi Calm Calm - N/A   Overcast
4:55 PM 48.2 °F - 39.2 °F 71% 30.11 in 10.0 mi Calm Calm - N/A   Overcast
5:15 PM 48.2 °F - 39.2 °F 71% 30.11 in 10.0 mi Calm Calm - N/A   Overcast
5:35 PM 48.2 °F - 39.2 °F 71% 30.11 in 10.0 mi Calm Calm - N/A   Overcast
5:55 PM 48.2 °F - 39.2 °F 71% 30.12 in 10.0 mi Calm Calm - N/A   Overcast
6:15 PM 48.2 °F - 39.2 °F 71% 30.11 in 10.0 mi Calm Calm - N/A   Overcast
6:35 PM 48.2 °F - 39.2 °F 71% 30.11 in 10.0 mi Calm Calm - N/A   Overcast
6:55 PM 48.2 °F - 39.2 °F 71% 30.11 in 10.0 mi Calm Calm - N/A   Overcast
7:15 PM 48.2 °F - 39.2 °F 71% 30.12 in 10.0 mi Calm Calm - N/A   Overcast
7:35 PM 46.4 °F - 41.0 °F 81% 30.12 in 10.0 mi Calm Calm - N/A   Overcast
7:55 PM 48.2 °F - 39.2 °F 71% 30.12 in 10.0 mi Calm Calm - N/A   Overcast
8:15 PM 46.4 °F - 41.0 °F 81% 30.12 in 9.0 mi Calm Calm - N/A Rain Light Rain
8:35 PM 46.4 °F - 42.8 °F 87% 30.13 in 10.0 mi Calm Calm - N/A   Overcast
8:55 PM 46.4 °F - 44.6 °F 93% 30.13 in 10.0 mi Calm Calm - N/A   Overcast
9:15 PM 46.4 °F - 42.8 °F 87% 30.13 in 10.0 mi Calm Calm - N/A   Overcast
9:35 PM 46.4 °F - 42.8 °F 87% 30.12 in 10.0 mi Calm Calm - N/A   Overcast
9:55 PM 46.4 °F - 42.8 °F 87% 30.11 in 10.0 mi Calm Calm - N/A   Overcast
10:15 PM 46.4 °F - 44.6 °F 93% 30.12 in 10.0 mi Calm Calm - N/A   Overcast
10:35 PM 46.4 °F - 42.8 °F 87% 30.11 in 10.0 mi Calm Calm - N/A   Overcast
10:55 PM 46.4 °F - 41.0 °F 81% 30.11 in 10.0 mi Calm Calm - N/A   Overcast
11:15 PM 46.4 °F - 42.8 °F 87% 30.11 in 10.0 mi Calm Calm - N/A   Overcast
11:35 PM 46.4 °F - 42.8 °F 87% 30.10 in 10.0 mi Calm Calm - N/A   Overcast
11:55 PM 46.4 °F - 44.6 °F 93% 30.10 in 10.0 mi Calm Calm - N/A   Overcast